Meteo Giornale » Osservazioni meteo Giappone » Nankishirahama
ore: 08:00 - Osservazioni Meteo Nankishirahama
Lat. 33° 40' N Lon. 135° 21' E Alt. 105 metri s.l.m.
28 °C
Coperto
Temp. 24 Ore
26 °C
32 °C
Nord
3.7 Km/h
Dew point 22 °C
Umidità 69 %
Visibilità 10 Km
Il sole sorge alle ore 05:32
Il sole tramonta alle ore 18:23
| Data e Ora | Cielo e Fenomeni | T °C | DP °C | Um. % | Pres. hPa | Vis. km | Vento km/h | |
|---|---|---|---|---|---|---|---|---|
| Oggi h: 08:00 | Coperto | 28 | 22 | 69 | 1013 | 10 | N 3.7 | |
| Oggi h: 07:00 | Pioggia | 27 | 22 | 74 | 1013 | 10 | N 3.7 | |
| Oggi h: 06:00 | Molto Nuvoloso | 27 | 21 | 69 | 1013 | 10 | E/NE 9.3 | |
| Oggi h: 05:00 | Poco Nuvoloso | 27 | 22 | 74 | 1013 | 10 | N 5.5 | |
| Oggi h: 04:00 | Poco Nuvoloso | 27 | 22 | 74 | 1013 | 10 | N 5.5 | |
| Oggi h: 03:00 | Poco Nuvoloso | 26 | 22 | 78 | 1013 | 10 | N 5.5 | |
| Oggi h: 02:00 | Nuvoloso | 27 | 22 | 74 | 1013 | 10 | E 9.3 | |
| Oggi h: 01:00 | Sereno | 27 | 21 | 69 | 1014 | 10 | N 3.7 | |
| Oggi h: 00:00 | Sereno | 26 | 21 | 73 | 1014 | 10 | N 3.7 | |
| Ieri h: 23:00 | Sereno | 26 | 21 | 73 | 1015 | 10 | N 5.5 | |
| Ieri h: 22:00 | Sereno | 27 | 21 | 69 | 1015 | 10 | N 3.7 | |
| Ieri h: 21:00 | Sereno | 28 | 21 | 65 | 1015 | 10 | E/SE 7.4 | |
| Ieri h: 20:00 | Sereno | 28 | 21 | 65 | 1014 | 10 | E/SE 13 | |
| Ieri h: 19:00 | Poco Nuvoloso | 29 | 20 | 58 | 1014 | 10 | S/SE 16.7 | |
| Ieri h: 18:00 | Poco Nuvoloso | 30 | 20 | 55 | 1013 | 10 | SE 20.3 | |
| Ieri h: 17:00 | Poco Nuvoloso | 31 | 23 | 62 | 1013 | 10 | S 18.5 | |
| Ieri h: 16:00 | Poco Nuvoloso | 31 | 22 | 58 | 1013 | 10 | S/SE 27.8 | |
| Ieri h: 15:00 | Poco Nuvoloso | 31 | 22 | 58 | 1013 | 10 | S 27.8 | |
| Ieri h: 14:00 | Poco Nuvoloso | 31 | 22 | 58 | 1013 | 10 | S/SE 24 | |
| Ieri h: 13:00 | Poco Nuvoloso | 32 | 21 | 52 | 1013 | 10 | S 25.9 | |
| Ieri h: 12:00 | Nuvoloso | 31 | 23 | 62 | 1014 | 10 | S/SE 22.2 | |
| Ieri h: 11:00 | Nuvoloso | 31 | 23 | 62 | 1014 | 10 | S/SE 16.7 | |
| Ieri h: 10:00 | Nuvoloso | 31 | 23 | 62 | 1014 | 10 | S 14.8 | |
| Ieri h: 09:00 | Nuvoloso | 30 | 21 | 58 | 1014 | 10 | S 9.3 | |



